Weather History for Columbia, MO

Change the Weather History Date:

Wednesday, January 23, 2013

  Actual Average Record
Temperature  
Mean Temperature 35 °F 30 °F  
Max Temperature 45 °F 39 °F 77 °F (1909)
Min Temperature 25 °F 21 °F -10 °F (1963)
Degree Days  
Heating Degree Days 30 35  
Month to date heating degree days 756 818  
Since 1 July heating degree days 2521 2813  
Cooling Degree Days 0 0  
Month to date cooling degree days 0 0  
Year to date cooling degree days 0 0  
Moisture  
Dew Point 15 °F    
Average Humidity 61    
Maximum Humidity 84    
Minimum Humidity 37    
Precipitation  
Precipitation 0.00 in 0.06 in 1.75 in (1938)
Month to date precipitation 0.63 1.42  
Year to date precipitation 0.63 1.42  
Snow  
Snow 0.00 in 0.20 in 5.50 in (1896)
Month to date snowfall 0.5 4.5  
Since 1 July snowfall 4.2 9.8  
Snow Depth 0.00 in    
Sea Level Pressure  
Sea Level Pressure 30.27 in    
Wind  
Wind Speed 8 mph (North)    
Max Wind Speed 14 mph    
Max Gust Speed -    
Visibility 10 miles    
Events      
T = Trace of Precipitation, MM = Missing Value Source: NWS Daily Summary

Daily Weather History Graph

Daily Weather History Graph

Search for Another Location

Airport:

Trip Planner

Search our weather history database for the weather conditions in past years. The results will help you decide how hot, cold, wet, or windy it might be!

Date:

Astronomy

Jan. 23, 2013 Rise Set
Actual Time 7:21 AM CST 5:20 PM CST
Civil Twilight 6:52 AM CST 5:49 PM CST
Nautical Twilight 6:20 AM CST 6:21 PM CST
Astronomical Twilight 5:49 AM CST 6:53 PM CST
Moon 2:31 PM CST (1/23) 4:32 AM CST (1/23)
Length of Visible Light 10h 56m
Length of Day
9h 58m
Waxing Gibbous, 89% of the Moon is Illuminated
Jan 23
Waxing Gibbous
Jan 26
Full
Feb 3
Last Quarter
Feb 10
New
Feb 17
First Quarter

Hourly Weather History & Observations

Time (CST) Temp. Windchill Dew Point Humidity Pressure Visibility Wind Dir Wind Speed Gust Speed Precip Events Conditions
12:54 AM 15.1 °F 4.2 °F 8.1 °F 74% 30.34 in 10.0 mi East 8.1 mph - N/A   Clear
1:54 AM 14.0 °F 3.9 °F 8.1 °F 77% 30.34 in 10.0 mi East 6.9 mph - N/A   Clear
2:54 AM 14.0 °F 3.9 °F 8.1 °F 77% 30.32 in 10.0 mi ESE 6.9 mph - N/A   Clear
3:54 AM 14.0 °F 5.1 °F 8.1 °F 77% 30.30 in 10.0 mi East 5.8 mph - N/A   Clear
4:54 AM 12.9 °F 3.8 °F 8.1 °F 81% 30.29 in 10.0 mi ESE 5.8 mph - N/A   Clear
5:54 AM 12.9 °F 3.8 °F 8.1 °F 81% 30.29 in 10.0 mi ESE 5.8 mph - N/A   Clear
6:54 AM 12.9 °F 3.8 °F 8.1 °F 81% 30.30 in 10.0 mi ESE 5.8 mph - N/A   Clear
7:54 AM 14.0 °F 5.1 °F 9.0 °F 80% 30.29 in 10.0 mi SE 5.8 mph - N/A   Clear
8:54 AM 19.9 °F 11.1 °F 12.9 °F 74% 30.27 in 10.0 mi South 6.9 mph - N/A   Clear
9:54 AM 28.0 °F 22.8 °F 16.0 °F 61% 30.28 in 10.0 mi WSW 4.6 mph - N/A   Clear
10:54 AM 34.0 °F 29.8 °F 18.0 °F 52% 30.27 in 10.0 mi WSW 4.6 mph - N/A   Clear
11:54 AM - - - N/A% - - North - - N/A   Unknown
12:54 PM 41.0 °F 35.8 °F 17.1 °F 38% 30.18 in 10.0 mi WNW 8.1 mph - N/A   Clear
1:54 PM 44.1 °F 38.6 °F 19.0 °F 37% 30.15 in 10.0 mi West 10.4 mph - N/A   Clear
2:54 PM 45.0 °F 39.7 °F 19.9 °F 37% 30.15 in 10.0 mi WNW 10.4 mph - N/A   Clear
3:54 PM 44.1 °F 38.1 °F 21.0 °F 40% 30.17 in 10.0 mi WNW 11.5 mph - N/A   Clear
4:54 PM 41.0 °F 36.4 °F 21.0 °F 45% 30.17 in 10.0 mi WNW 6.9 mph - N/A   Clear
5:54 PM 37.9 °F 31.5 °F 21.0 °F 51% 30.19 in 10.0 mi NW 9.2 mph - N/A   Clear
6:54 PM 35.1 °F 26.9 °F 21.0 °F 57% 30.23 in 10.0 mi NNW 11.5 mph - N/A   Clear
7:54 PM 30.9 °F 22.8 °F 19.9 °F 64% 30.24 in 10.0 mi NNW 9.2 mph - N/A   Clear
8:54 PM 33.1 °F 23.4 °F 19.0 °F 56% 30.28 in 10.0 mi North 13.8 mph - N/A   Clear
9:54 PM 30.0 °F 21.1 °F 19.0 °F 64% 30.32 in 10.0 mi North 10.4 mph - N/A   Clear
10:54 PM 28.0 °F 18.6 °F 17.1 °F 63% 30.35 in 10.0 mi North 10.4 mph - N/A   Clear
11:54 PM 25.0 °F 14.2 °F 10.9 °F 55% 30.37 in 10.0 mi North 11.5 mph - N/A   Clear